Location: Peterborough
(44.3091°N, 78.3197°W)
Time: 03:49:54
(UTC-04:00)

Tiros 1 - Pass Details

Date: 08 April 2023
Orbit: 627 x 661 km, 48.4° (Epoch: 09 June)

Event Time Altitude Azimuth Distance (km) Brightness Sun altitude
Rises 06:52:20 0° 292° (WNW) 2,988 10.0 1.0°
Reaches altitude 10° 06:54:43 10° 288° (WNW) 2,076 9.2 1.4°
Maximum altitude 06:59:23 52° 212° (SSW) 818 7.5 2.2°
Drops below altitude 10° 07:04:01 10° 137° (SE) 2,068 10.3 3.0°
Sets 07:06:24 0° 132° (SE) 2,975 11.2 3.5°
